Date String (YYYY-MM-DD hh:mm:ss) UTC,Instrument flags,Ambient pressure (hPa),Sample flow (lpm),Bypass flow (lpm),Sample temperature (°C),Ambient temperature (°C),ASC tube jacket temperature (°C),LED temperature (°C),Box temperature (°C),Sample RH (%),Span deviation,Mass concentration (μg/m³),Mass concentration (μg/m³),Mass concentration (μg/m³)
DateTimeUTC,F1_M11,P_M11,Q1_M11,Q2_M11,T1_M11,T2_M11,T3_M11,T4_M11,T5_M11,U1_M11,ZSPAN_M11,X0_M11,X2_M11,X1_M11
2023-02-02 08:00:00,,0827.7,5.07,0.00,22.7,22.5,00.0,31.4,24.7,08.9,0000.0,0015.71,0008.65,0007.83
2023-02-02 08:01:00,,0827.7,4.97,0.00,22.7,22.1,00.0,31.5,24.6,08.8,0000.0,0015.72,0008.64,0007.83
2023-02-02 08:02:00,,0827.7,5.05,0.00,22.7,21.9,00.0,31.5,24.6,08.8,0000.0,0015.81,0008.65,0007.83
2023-02-02 08:03:00,,0827.6,4.96,0.00,22.7,21.7,00.0,31.5,24.6,08.9,0000.0,0015.53,0008.64,0007.80
2023-02-02 08:04:00,,0827.6,5.00,0.00,22.7,21.5,00.0,31.5,24.5,08.9,0000.0,0015.15,0008.61,0007.80
2023-02-02 08:05:00,,0827.7,5.00,0.00,22.7,21.4,00.0,31.5,24.5,08.9,0000.0,0015.00,0008.63,0007.83
2023-02-02 08:06:00,,0827.7,5.02,0.00,22.7,21.4,00.0,31.5,24.5,08.8,0000.0,0014.39,0008.57,0007.78
2023-02-02 08:07:00,,0827.7,4.96,0.00,22.7,21.3,00.0,31.5,24.5,08.9,0000.0,0014.13,0008.49,0007.72
2023-02-02 08:08:00,,0827.7,5.02,0.00,22.7,21.3,00.0,31.5,24.5,08.9,0000.0,0013.78,0008.32,0007.63
2023-02-02 08:09:00,,0827.7,4.99,0.00,22.7,21.2,00.0,31.5,24.4,08.9,0000.0,0013.64,0008.23,0007.58
2023-02-02 08:10:00,,0827.7,4.98,0.00,22.6,21.1,00.0,31.5,24.4,08.9,0000.0,0013.46,0008.14,0007.52
2023-02-02 08:11:00,,0827.7,5.00,0.00,22.6,21.0,00.0,31.5,24.4,08.9,0000.0,0013.35,0008.07,0007.46
2023-02-02 08:12:00,,0827.7,5.02,0.00,22.6,20.9,00.0,31.5,24.2,08.9,0000.0,0013.22,0007.99,0007.38
2023-02-02 08:13:00,,0827.7,5.00,0.00,22.5,20.9,00.0,31.5,24.2,08.9,0000.0,0013.37,0007.90,0007.30
2023-02-02 08:14:00,,0827.7,5.01,0.00,22.5,20.8,00.0,31.5,24.2,09.0,0000.0,0014.01,0007.83,0007.26
2023-02-02 08:15:00,,0827.7,5.00,0.00,22.5,20.7,00.0,31.5,24.1,09.0,0000.0,0013.86,0007.77,0007.19
2023-02-02 08:16:00,,0827.7,4.98,0.00,22.4,20.6,00.0,31.4,24.1,09.0,0000.0,0013.89,0007.66,0007.06
2023-02-02 08:17:00,,0827.7,5.00,0.00,22.4,20.6,00.0,31.4,24.1,09.1,0000.0,0013.73,0007.51,0006.93
2023-02-02 08:18:00,,0827.7,5.00,0.00,22.4,20.7,00.0,31.4,24.1,09.0,0000.0,0013.94,0007.42,0006.83
2023-02-02 08:19:00,,0827.8,5.01,0.00,22.4,20.7,00.0,31.4,24.1,09.0,0000.0,0013.99,0007.35,0006.76
2023-02-02 08:20:00,,0827.7,5.01,0.00,22.4,21.0,00.0,31.3,24.2,09.0,0000.0,0013.90,0007.26,0006.66
2023-02-02 08:21:00,,0827.7,4.99,0.00,22.5,21.9,00.0,31.3,24.4,09.0,0000.0,0014.12,0007.17,0006.57
2023-02-02 08:22:00,,0827.7,4.99,0.00,22.6,22.8,00.0,31.3,24.6,08.9,0000.0,0013.95,0007.07,0006.48
2023-02-02 08:23:00,,0827.7,4.99,0.00,22.7,22.8,00.0,31.4,24.7,08.9,0000.0,0013.81,0006.98,0006.39
2023-02-02 08:24:00,,0827.7,5.00,0.00,22.7,22.4,00.0,31.4,24.6,08.8,0000.0,0013.40,0006.89,0006.31
2023-02-02 08:25:00,,0827.8,5.00,0.00,22.7,22.0,00.0,31.4,24.5,08.8,0000.0,0012.72,0006.82,0006.23
2023-02-02 08:26:00,,0827.7,4.99,0.00,22.7,21.8,00.0,31.4,24.5,08.8,0000.0,0013.03,0006.75,0006.15
2023-02-02 08:27:00,,0827.7,5.03,0.00,22.7,21.6,00.0,31.4,24.5,08.7,0000.0,0012.84,0006.70,0006.09
2023-02-02 08:28:00,,0827.8,5.00,0.00,22.7,21.5,00.0,31.5,24.5,08.7,0000.0,0012.66,0006.68,0006.07
2023-02-02 08:29:00,,0827.7,5.01,0.00,22.7,21.4,00.0,31.5,24.5,08.7,0000.0,0012.30,0006.66,0006.03
2023-02-02 08:30:00,,0827.7,4.97,0.00,22.7,21.4,00.0,31.5,24.4,08.7,0000.0,0012.07,0006.60,0006.00
2023-02-02 08:31:00,,0827.7,5.04,0.00,22.7,21.4,00.0,31.5,24.5,08.7,0000.0,0012.51,0006.57,0005.95
2023-02-02 08:32:00,,0827.7,4.99,0.00,22.7,21.3,00.0,31.5,24.5,08.7,0000.0,0012.15,0006.54,0005.94
2023-02-02 08:33:00,,0827.8,5.00,0.00,22.7,21.2,00.0,31.5,24.5,08.7,0000.0,0012.23,0006.58,0005.94
2023-02-02 08:34:00,,0827.8,5.00,0.00,22.6,21.1,00.0,31.5,24.4,08.7,0000.0,0012.23,0006.58,0005.95
2023-02-02 08:35:00,,0827.8,4.99,0.00,22.6,21.0,00.0,31.5,24.4,08.7,0000.0,0012.17,0006.59,0005.95
2023-02-02 08:36:00,,0827.8,4.99,0.00,22.6,21.0,00.0,31.5,24.3,08.7,0000.0,0011.99,0006.57,0005.94
2023-02-02 08:37:00,,0827.9,5.02,0.00,22.6,20.9,00.0,31.5,24.3,08.7,0000.0,0011.37,0006.58,0005.95
2023-02-02 08:38:00,,0827.9,4.99,0.00,22.6,21.0,00.0,31.5,24.3,08.7,0000.0,0011.47,0006.60,0005.98
2023-02-02 08:39:00,,0827.9,4.99,0.00,22.5,21.0,00.0,31.4,24.3,08.7,0000.0,0011.74,0006.59,0006.01
2023-02-02 08:40:00,,0827.9,5.01,0.00,22.5,21.0,00.0,31.4,24.3,08.7,0000.0,0011.71,0006.59,0006.03
2023-02-02 08:41:00,,0827.9,5.02,0.00,22.5,21.0,00.0,31.4,24.3,08.7,0000.0,0011.74,0006.59,0006.04
2023-02-02 08:42:00,,0827.9,4.99,0.00,22.5,20.9,00.0,31.4,24.3,08.7,0000.0,0011.47,0006.61,0006.06
2023-02-02 08:43:00,,0827.9,4.98,0.00,22.5,20.9,00.0,31.4,24.3,08.7,0000.0,0011.50,0006.68,0006.08
2023-02-02 08:44:00,,0827.8,4.99,0.00,22.5,20.9,00.0,31.4,24.2,08.7,0000.0,0011.45,0006.69,0006.11
2023-02-02 08:45:00,,0827.8,5.00,0.00,22.5,20.9,00.0,31.4,24.2,08.7,0000.0,0011.53,0006.70,0006.13
2023-02-02 08:46:00,,0827.8,5.03,0.00,22.5,21.1,00.0,31.4,24.3,08.7,0000.0,0011.77,0006.75,0006.16
2023-02-02 08:47:00,,0827.8,4.98,0.00,22.6,21.9,00.0,31.3,24.5,08.7,0000.0,0012.69,0006.77,0006.18
2023-02-02 08:48:00,,0827.9,5.00,0.00,22.6,22.8,00.0,31.3,24.7,08.7,0000.0,0012.72,0006.74,0006.15
2023-02-02 08:49:00,,0827.9,5.00,0.00,22.7,23.0,00.0,31.4,24.8,08.7,0000.0,0012.71,0006.74,0006.12
2023-02-02 08:50:00,,0827.9,4.98,0.00,22.8,22.5,00.0,31.4,24.7,08.7,0000.0,0012.42,0006.76,0006.11
2023-02-02 08:51:00,,0827.9,4.97,0.00,22.7,22.1,00.0,31.4,24.6,08.7,0000.0,0012.25,0006.73,0006.11
2023-02-02 08:52:00,,0827.9,5.03,0.00,22.7,21.7,00.0,31.5,24.5,08.7,0000.0,0012.81,0006.77,0006.11
2023-02-02 08:53:00,,0827.9,5.02,0.00,22.7,21.6,00.0,31.5,24.5,08.7,0000.0,0012.74,0006.77,0006.12
2023-02-02 08:54:00,,0828.0,4.97,0.00,22.7,21.5,00.0,31.5,24.5,08.7,0000.0,0012.55,0006.71,0006.10
2023-02-02 08:55:00,,0827.9,5.02,0.00,22.7,21.4,00.0,31.5,24.5,08.7,0000.0,0012.73,0006.63,0006.06
2023-02-02 08:56:00,,0827.9,4.99,0.00,22.7,21.3,00.0,31.5,24.5,08.7,0000.0,0013.05,0006.60,0006.04
2023-02-02 08:57:00,,0827.9,5.01,0.00,22.7,21.3,00.0,31.5,24.4,08.7,0000.0,0012.89,0006.57,0006.05
2023-02-02 08:58:00,,0828.0,5.05,0.00,22.7,21.3,00.0,31.5,24.5,08.6,0000.0,0011.97,0006.59,0006.07
2023-02-02 08:59:00,,0828.0,4.98,0.00,22.7,21.2,00.0,31.5,24.5,08.6,0000.0,0011.90,0006.61,0006.11
